TimeCDT,TemperatureF,Dew PointF,Humidity,Sea Level PressureIn,VisibilityMPH,Wind Direction,Wind SpeedMPH,Gust SpeedMPH,PrecipitationIn,Events,Conditions,WindDirDegrees,DateUTC
12:52 AM,37.0,27.0,67,30.35,10.0,NNW,6.9,-,N/A,,Mostly Cloudy,340,2012-10-07 05:52:00
1:52 AM,37.0,27.0,67,30.35,10.0,NW,4.6,-,N/A,,Overcast,320,2012-10-07 06:52:00
2:52 AM,32.0,26.1,79,30.35,10.0,Calm,Calm,-,N/A,,Clear,0,2012-10-07 07:52:00
3:52 AM,27.0,21.9,81,30.33,8.0,NNW,4.6,-,N/A,,Clear,340,2012-10-07 08:52:00
4:52 AM,23.0,19.9,88,30.34,9.0,NNW,6.9,-,N/A,,Clear,340,2012-10-07 09:52:00
5:52 AM,26.1,23.0,88,30.33,10.0,WNW,5.8,-,N/A,,Clear,300,2012-10-07 10:52:00
6:52 AM,25.0,21.0,85,30.34,8.0,NNW,3.5,-,N/A,,Clear,330,2012-10-07 11:52:00
7:52 AM,24.1,21.0,88,30.35,10.0,NNW,3.5,-,N/A,,Clear,330,2012-10-07 12:52:00
8:52 AM,34.0,27.0,75,30.35,10.0,Calm,Calm,-,N/A,,Clear,0,2012-10-07 13:52:00
9:52 AM,41.0,27.0,57,30.35,10.0,NW,4.6,-,N/A,,Clear,310,2012-10-07 14:52:00
10:52 AM,48.0,27.0,44,30.34,10.0,Calm,Calm,-,N/A,,Clear,0,2012-10-07 15:52:00
11:52 AM,53.1,25.0,34,30.32,10.0,West,8.1,16.1,N/A,,Clear,270,2012-10-07 16:52:00
12:52 PM,54.0,24.1,31,30.29,10.0,WNW,4.6,-,N/A,,Clear,290,2012-10-07 17:52:00
1:52 PM,55.0,23.0,29,30.25,10.0,Calm,Calm,-,N/A,,Clear,0,2012-10-07 18:52:00
2:52 PM,55.9,23.0,28,30.22,10.0,Variable,3.5,-,N/A,,Clear,0,2012-10-07 19:52:00
3:52 PM,57.9,23.0,26,30.19,10.0,Variable,3.5,-,N/A,,Clear,0,2012-10-07 20:52:00
4:52 PM,55.9,21.9,27,30.17,10.0,WSW,6.9,-,N/A,,Clear,250,2012-10-07 21:52:00
5:52 PM,57.0,23.0,27,30.17,10.0,West,9.2,-,N/A,,Clear,280,2012-10-07 22:52:00
6:52 PM,53.1,24.1,32,30.17,10.0,SW,6.9,-,N/A,,Partly Cloudy,230,2012-10-07 23:52:00
7:52 PM,46.9,26.1,44,30.18,10.0,SW,6.9,-,N/A,,Scattered Clouds,220,2012-10-08 00:52:00
8:52 PM,39.9,26.1,58,30.18,8.0,Calm,Calm,-,N/A,,Scattered Clouds,0,2012-10-08 01:52:00
9:52 PM,37.0,26.1,65,30.19,9.0,Calm,Calm,-,N/A,,Clear,0,2012-10-08 02:52:00
10:52 PM,34.0,26.1,73,30.18,10.0,ESE,3.5,-,N/A,,Clear,110,2012-10-08 03:52:00
11:52 PM,30.9,25.0,79,30.16,10.0,East,4.6,-,N/A,,Clear,100,2012-10-08 04:52:00